Regional Weather Roundup
Issued by NWS Jackson, KY

Home | Current Version | Previous Version | Text Only | Print | Product List | Glossary Off
Versions: 1 2 3 4 5 6 7 8 9 10 11 12 13 14 15 16 17 18 19 20 21 22 23 24 25 26 27 28 29 30 31 32 33 34 35 36 37 38 39 40 41 42 43 44 45 46 47 48 49 50

000
ASUS43 KJKL 080110
RWRJKL

EAST KENTUCKY HOURLY WEATHER ROUNDUP
NATIONAL WEATHER SERVICE JACKSON KY
900 PM EDT TUE JUL 07 2015

NOTE: "FAIR" INDICATES FEW OR NO CLOUDS BELOW 12,000 FEET WITH
NO SIGNIFICANT WEATHER AND/OR OBSTRUCTIONS TO VISIBILITY.

* THESE REPORTS ARE NOT UNDER NWS QUALITY CONTROL AND MAY NOT
  REPORT WEATHER SUCH AS PRECIPITATION AND FOG.

KYZ079-080-083-085-087-088-110-112-115-119-120-080200
...EASTERN KENTUCKY...

CITY           SKY/WX    TMP DP  RH WIND       PRES   REMARKS
JACKSON        CLOUDY    77  69  76 VRB3      30.05S
LONDON         CLOUDY    81  66  60 SW5       30.06R
SOMERSET*      CLOUDY    77  68  73 S5        30.05F
MONTICELLO*    CLOUDY    78  74  87 CALM      30.08R
MIDDLESBORO*   MOCLDY    79  73  82 CALM      30.08S
HARLAN APT*      N/A     79  66  65 CALM      30.10R
HAZARD APT*    PTCLDY    79  72  78 CALM      30.06S
PIKEVILLE APT* CLOUDY    75  70  83 S3        30.07R
BIG SANDY*     CLOUDY    77  69  78 CALM      30.05R
MOREHEAD APT*  CLOUDY    70  68  94 CALM      30.04S FOG
$$

KYZ035-036-041-042-044-050-067-078-099-080200
...CENTRAL KENTUCKY...

CITY           SKY/WX    TMP DP  RH WIND       PRES   REMARKS
MT STERLING*   LGT RAIN  68  68 100 W5        30.06R
FLEMING/MASON* PTCLDY   N/A N/A N/A SW6       30.02S
DANVILLE*      CLOUDY    68  66  94 CALM      30.05S
RICHMOND*      CLOUDY    68  64  88 CALM      30.04F
LEXINGTON      CLOUDY    71  69  93 S6        30.03R
FRANKFORT      CLOUDY    72  69  90 CALM      30.00S
$$

KYZ091>093-OHZ055-061-077-WVZ005-015-034-035-042-080200
...SOUTHERN OHIO/WEST VIRGINIA...

CITY           SKY/WX    TMP DP  RH WIND       PRES   REMARKS
COVINGTON      CLOUDY    72  70  93 SW6       29.97S
COLUMBUS       CLOUDY    73  71  93 W5        29.95R
DAYTON         LGT RAIN  72  70  93 NW3       29.95S FOG
WILMINGTON     LGT RAIN  72  68  87 SW10G22   29.95F
HUNTINGTON     CLOUDY    70  69  97 CALM      30.02R
CHARLESTON     HVY RAIN  73  67  81 W15G31    30.06R VSB 1
PINEVILLE*     CLOUDY    69  69 100 MISG      30.15S
BECKLEY        CLOUDY    72  60  66 S6        30.14S
BLUEFIELD      CLOUDY    75  64  68 SW7       30.17S
$$

VAZ002-007-008-TNZ017-027-036-066-071-080200
...SOUTHWEST VIRGINIA/EAST TENNESSEE...

CITY           SKY/WX    TMP DP  RH WIND       PRES   REMARKS
WISE*          CLOUDY    73  64  73 S7        30.17S
JONESVILLE*      N/A    N/A N/A N/A MISG        N/A
ABINGDON*      MOCLDY    78  67  70 W3        30.15S
BRISTOL        MOCLDY    80  67  64 S5        30.11S
KNOXVILLE      CLOUDY    82  70  66 SW8       30.07R
OAK RIDGE      CLOUDY    83  68  60 CALM      30.09R
CROSSVILLE     CLOUDY    78  68  71 VRB3      30.14R
NASHVILLE      CLOUDY    74  73  97 S5        30.06S
$$

...KEY TO REMARKS...
VSB - VISIBILITY IN MILES
WCI - WIND CHILL INDEX
HX  - HEAT INDEX

$$



USA.gov is the U.S. government's official web portal to all federal, state and local government web resources and services.